This is the latest recevied weather packets stored in our database for station/object KA3WVU. If no packets are shown the sender has not sent any weather packets the latest 10 day(s).
| Time | Temp. | Humidity | Pressure | Rain* | Wind** | Luminosity | Snow |
|---|---|---|---|---|---|---|---|
| 1777916165 | 19.44° C | 41% | 1009.5 hPa | 0 mm | - | 431 W/m² | - |
| 1777915863 | 20° C | 42% | 1009.5 hPa | 0 mm | - | 635 W/m² | - |
| 1777915559 | 18.89° C | 42% | 1009.4 hPa | 0 mm | - | 532 W/m² | - |
| 1777915256 | 18.33° C | 43% | 1009.4 hPa | 0 mm | - | 128 W/m² | - |
| 1777914952 | 18.89° C | 42% | 1009.5 hPa | 0 mm | - | 155 W/m² | - |
| 1777914649 | 18.33° C | 43% | 1009.5 hPa | 0 mm | - | 141 W/m² | - |
| 1777914345 | 18.33° C | 44% | 1009.6 hPa | 0 mm | - | 827 W/m² | - |
| 1777914043 | 18.89° C | 44% | 1009.5 hPa | 0 mm | - | 651 W/m² | - |
| 1777913738 | 18.89° C | 44% | 1009.7 hPa | 0 mm | - | 697 W/m² | - |
| 1777913436 | 18.89° C | 42% | 1009.7 hPa | 0 mm | - | 545 W/m² | - |
| 1777913132 | 17.22° C | 47% | 1009.7 hPa | 0 mm | - | 789 W/m² | - |
| 1777912829 | 18.33° C | 45% | 1009.7 hPa | 0 mm | - | 521 W/m² | - |
| 1777912525 | 17.78° C | 46% | 1009.7 hPa | 0 mm | - | 289 W/m² | - |
| 1777912222 | 18.33° C | 45% | 1009.9 hPa | 0 mm | - | 373 W/m² | - |
| 1777911918 | 17.78° C | 45% | 1009.7 hPa | 0 mm | - | 212 W/m² | - |
| 1777911614 | 17.22° C | 46% | 1010.1 hPa | 0 mm | - | 142 W/m² | - |
| 1777911310 | 17.22° C | 47% | 1010 hPa | 0 mm | - | 359 W/m² | - |
| 1777911008 | 16.11° C | 48% | 1010.1 hPa | 0 mm | - | 98 W/m² | - |
| 1777910706 | 17.22° C | 47% | 1010.2 hPa | 0 mm | - | 151 W/m² | - |
| 1777910401 | 17.22° C | 46% | 1010.2 hPa | 0 mm | - | 200 W/m² | - |
| 1777910098 | 16.67° C | 46% | 1010.1 hPa | 0 mm | - | 387 W/m² | - |
| 1777909796 | 16.67° C | 47% | 1010.2 hPa | 0 mm | - | 445 W/m² | - |
| 1777909492 | 16.67° C | 46% | 1010.4 hPa | 0 mm | - | 347 W/m² | - |
| 1777909190 | 16.11° C | 47% | 1010.3 hPa | 0 mm | - | 523 W/m² | - |
| 1777908888 | 16.11° C | 48% | 1010.4 hPa | 0 mm | - | 316 W/m² | - |
* Rain latest hour (hover to see other rain measurements)
** Current wind speed in m/s (hover to see current wind gust speed)